Time,TemperatureF,DewpointF,PressureIn,WindDirection,WindDirectionDegrees,WindSpeedMPH,WindSpeedGustMPH,Humidity,HourlyPrecipIn,Conditions,Clouds,dailyrainin,SoftwareType,DateUTC
2013-08-03 00:02:00,73.0,-99.9,29.86,West,266,8.0,-999.0,-999,-99.99,,,-99.99,,2013-08-03 04:02:00,
2013-08-03 00:22:00,73.0,-99.9,29.86,SW,229,5.0,-999.0,-999,-99.99,,,-99.99,,2013-08-03 04:22:00,
2013-08-03 00:33:00,73.0,-99.9,29.86,SW,229,5.0,-999.0,-999,-99.99,,,-99.99,,2013-08-03 04:33:00,
2013-08-03 00:53:00,72.0,-99.9,29.86,West,269,9.0,-999.0,-999,-99.99,,,-99.99,,2013-08-03 04:53:00,
2013-08-03 01:02:00,72.0,-99.9,29.86,West,269,9.0,-999.0,-999,-99.99,,,-99.99,,2013-08-03 05:02:00,
2013-08-03 01:12:00,72.0,-99.9,29.86,West,269,9.0,-999.0,-999,-99.99,,,-99.99,,2013-08-03 05:12:00,
2013-08-03 01:22:00,72.0,-99.9,29.85,West,275,9.0,-999.0,-999,-99.99,,,-99.99,,2013-08-03 05:22:00,
2013-08-03 01:32:00,72.0,-99.9,29.85,West,275,9.0,-999.0,-999,-99.99,,,-99.99,,2013-08-03 05:32:00,
2013-08-03 01:53:00,72.0,-99.9,29.84,West,262,7.0,-999.0,-999,-99.99,,,-99.99,,2013-08-03 05:53:00,
2013-08-03 02:02:00,72.0,-99.9,29.84,West,262,7.0,-999.0,-999,-99.99,,,-99.99,,2013-08-03 06:02:00,
2013-08-03 02:22:00,73.0,-99.9,29.83,WNW,284,10.0,-999.0,-999,-99.99,,,-99.99,,2013-08-03 06:22:00,
2013-08-03 02:33:00,73.0,-99.9,29.83,WNW,284,10.0,-999.0,-999,-99.99,,,-99.99,,2013-08-03 06:33:00,
2013-08-03 02:52:00,73.0,-99.9,29.82,West,264,8.0,-999.0,-999,-99.99,,,-99.99,,2013-08-03 06:52:00,
2013-08-03 03:02:00,73.0,-99.9,29.82,West,264,8.0,-999.0,-999,-99.99,,,-99.99,,2013-08-03 07:02:00,
2013-08-03 03:22:00,73.0,-99.9,29.81,West,270,11.0,-999.0,-999,-99.99,,,-99.99,,2013-08-03 07:22:00,
2013-08-03 03:32:00,73.0,-99.9,29.81,West,270,11.0,-999.0,-999,-99.99,,,-99.99,,2013-08-03 07:32:00,
2013-08-03 03:53:00,73.0,-99.9,29.80,WSW,254,9.0,-999.0,-999,-99.99,,,-99.99,,2013-08-03 07:53:00,
2013-08-03 04:02:00,73.0,-99.9,29.80,WSW,254,9.0,-999.0,-999,-99.99,,,-99.99,,2013-08-03 08:02:00,
2013-08-03 04:22:00,72.0,-99.9,29.79,West,261,10.0,-999.0,-999,-99.99,,,-99.99,,2013-08-03 08:22:00,
2013-08-03 04:32:00,72.0,-99.9,29.79,West,261,10.0,-999.0,-999,-99.99,,,-99.99,,2013-08-03 08:32:00,
2013-08-03 04:52:00,72.0,-99.9,29.80,WNW,295,8.0,-999.0,-999,-99.99,,,-99.99,,2013-08-03 08:52:00,
2013-08-03 05:02:00,72.0,-99.9,29.80,WNW,295,8.0,-999.0,-999,-99.99,,,-99.99,,2013-08-03 09:02:00,
2013-08-03 05:22:00,72.0,-99.9,29.81,West,270,8.0,-999.0,-999,-99.99,,,-99.99,,2013-08-03 09:22:00,
2013-08-03 05:32:00,72.0,-99.9,29.81,West,270,8.0,-999.0,-999,-99.99,,,-99.99,,2013-08-03 09:32:00,
2013-08-03 05:53:00,72.0,-99.9,29.82,WNW,301,7.0,-999.0,-999,-99.99,,,-99.99,,2013-08-03 09:53:00,
2013-08-03 06:02:00,72.0,-99.9,29.82,WNW,301,7.0,-999.0,-999,-99.99,,,-99.99,,2013-08-03 10:02:00,
2013-08-03 06:12:00,72.0,-99.9,29.82,WNW,301,7.0,-999.0,-999,-99.99,,,-99.99,,2013-08-03 10:12:00,
2013-08-03 06:22:00,72.0,-99.9,29.82,WNW,290,7.0,-999.0,-999,-99.99,,,-99.99,,2013-08-03 10:22:00,
2013-08-03 06:33:00,72.0,-99.9,29.82,WNW,290,7.0,-999.0,-999,-99.99,,,-99.99,,2013-08-03 10:33:00,
2013-08-03 06:53:00,72.0,-99.9,29.83,WNW,284,7.0,-999.0,-999,-99.99,,,-99.99,,2013-08-03 10:53:00,
2013-08-03 07:02:00,72.0,-99.9,29.83,WNW,284,7.0,-999.0,-999,-99.99,,,-99.99,,2013-08-03 11:02:00,
2013-08-03 07:23:00,73.0,-99.9,29.81,West,270,9.0,-999.0,-999,-99.99,,,-99.99,,2013-08-03 11:23:00,
2013-08-03 07:32:00,73.0,-99.9,29.81,West,270,9.0,-999.0,-999,-99.99,,,-99.99,,2013-08-03 11:32:00,
2013-08-03 07:53:00,73.0,-99.9,29.82,West,279,10.0,-999.0,-999,-99.99,,,-99.99,,2013-08-03 11:53:00,
2013-08-03 08:03:00,73.0,-99.9,29.82,West,279,10.0,-999.0,-999,-99.99,,,-99.99,,2013-08-03 12:03:00,
2013-08-03 08:12:00,73.0,-99.9,29.82,West,279,10.0,-999.0,-999,-99.99,,,-99.99,,2013-08-03 12:12:00,
2013-08-03 08:22:00,73.0,-99.9,29.82,West,274,12.0,-999.0,-999,-99.99,,,-99.99,,2013-08-03 12:22:00,
2013-08-03 08:33:00,73.0,-99.9,29.82,West,274,12.0,-999.0,-999,-99.99,,,-99.99,,2013-08-03 12:33:00,
2013-08-03 08:53:00,73.0,-99.9,29.81,West,275,8.0,-999.0,-999,-99.99,,,-99.99,,2013-08-03 12:53:00,
2013-08-03 09:02:00,73.0,-99.9,29.81,West,275,8.0,-999.0,-999,-99.99,,,-99.99,,2013-08-03 13:02:00,
2013-08-03 09:22:00,74.0,-99.9,29.82,West,271,14.0,-999.0,-999,-99.99,,,-99.99,,2013-08-03 13:22:00,
2013-08-03 09:33:00,74.0,-99.9,29.82,West,271,14.0,-999.0,-999,-99.99,,,-99.99,,2013-08-03 13:33:00,
2013-08-03 09:52:00,74.0,-99.9,29.83,WNW,299,13.0,-999.0,-999,-99.99,,,-99.99,,2013-08-03 13:52:00,
2013-08-03 10:02:00,74.0,-99.9,29.83,WNW,299,13.0,-999.0,-999,-99.99,,,-99.99,,2013-08-03 14:02:00,
2013-08-03 10:13:00,74.0,-99.9,29.83,WNW,299,13.0,-999.0,-999,-99.99,,,-99.99,,2013-08-03 14:13:00,
2013-08-03 10:22:00,73.0,-99.9,29.83,West,281,10.0,-999.0,-999,-99.99,,,-99.99,,2013-08-03 14:22:00,
2013-08-03 10:33:00,73.0,-99.9,29.83,West,281,10.0,-999.0,-999,-99.99,,,-99.99,,2013-08-03 14:33:00,
2013-08-03 10:52:00,73.0,-99.9,29.82,WNW,300,14.0,-999.0,-999,-99.99,,,-99.99,,2013-08-03 14:52:00,
2013-08-03 11:02:00,73.0,-99.9,29.82,WNW,300,14.0,-999.0,-999,-99.99,,,-99.99,,2013-08-03 15:02:00,
2013-08-03 11:23:00,73.0,-99.9,29.83,West,277,9.0,-999.0,-999,-99.99,,,-99.99,,2013-08-03 15:23:00,
2013-08-03 11:32:00,73.0,-99.9,29.83,West,277,9.0,-999.0,-999,-99.99,,,-99.99,,2013-08-03 15:32:00,
2013-08-03 11:53:00,73.0,-99.9,29.83,WNW,282,10.0,-999.0,-999,-99.99,,,-99.99,,2013-08-03 15:53:00,
2013-08-03 12:02:00,73.0,-99.9,29.83,WNW,282,10.0,-999.0,-999,-99.99,,,-99.99,,2013-08-03 16:02:00,
2013-08-03 12:23:00,72.0,-99.9,29.83,WSW,255,11.0,-999.0,-999,-99.99,,,-99.99,,2013-08-03 16:23:00,
2013-08-03 12:33:00,72.0,-99.9,29.83,WSW,255,11.0,-999.0,-999,-99.99,,,-99.99,,2013-08-03 16:33:00,
2013-08-03 12:53:00,72.0,-99.9,29.82,West,271,11.0,-999.0,-999,-99.99,,,-99.99,,2013-08-03 16:53:00,
2013-08-03 13:03:00,72.0,-99.9,29.82,West,271,11.0,-999.0,-999,-99.99,,,-99.99,,2013-08-03 17:03:00,
2013-08-03 13:22:00,72.0,-99.9,29.83,West,276,8.0,-999.0,-999,-99.99,,,-99.99,,2013-08-03 17:22:00,
2013-08-03 13:33:00,72.0,-99.9,29.83,West,276,8.0,-999.0,-999,-99.99,,,-99.99,,2013-08-03 17:33:00,
2013-08-03 13:52:00,72.0,-99.9,29.82,West,260,12.0,-999.0,-999,-99.99,,,-99.99,,2013-08-03 17:52:00,
2013-08-03 14:02:00,72.0,-99.9,29.82,West,260,12.0,-999.0,-999,-99.99,,,-99.99,,2013-08-03 18:02:00,
2013-08-03 14:22:00,71.0,-99.9,29.82,WSW,255,14.0,-999.0,-999,-99.99,,,-99.99,,2013-08-03 18:22:00,
2013-08-03 14:32:00,71.0,-99.9,29.82,WSW,255,14.0,-999.0,-999,-99.99,,,-99.99,,2013-08-03 18:32:00,
2013-08-03 14:53:00,71.0,-99.9,29.82,WSW,258,11.0,-999.0,-999,-99.99,,,-99.99,,2013-08-03 18:53:00,
2013-08-03 15:03:00,71.0,-99.9,29.82,WSW,258,11.0,-999.0,-999,-99.99,,,-99.99,,2013-08-03 19:03:00,
2013-08-03 15:22:00,72.0,-99.9,29.81,WSW,255,13.0,-999.0,-999,-99.99,,,-99.99,,2013-08-03 19:22:00,
2013-08-03 15:33:00,72.0,-99.9,29.81,WSW,255,13.0,-999.0,-999,-99.99,,,-99.99,,2013-08-03 19:33:00,
2013-08-03 15:53:00,73.0,-99.9,29.80,WNW,282,13.0,-999.0,-999,-99.99,,,-99.99,,2013-08-03 19:53:00,
2013-08-03 16:02:00,73.0,-99.9,29.80,WNW,282,13.0,-999.0,-999,-99.99,,,-99.99,,2013-08-03 20:02:00,
2013-08-03 16:12:00,73.0,-99.9,29.80,WNW,282,13.0,-999.0,-999,-99.99,,,-99.99,,2013-08-03 20:12:00,
2013-08-03 16:22:00,74.0,-99.9,29.79,West,270,20.0,-999.0,-999,-99.99,,,-99.99,,2013-08-03 20:22:00,
2013-08-03 16:32:00,74.0,-99.9,29.79,West,270,20.0,-999.0,-999,-99.99,,,-99.99,,2013-08-03 20:32:00,
2013-08-03 16:52:00,74.0,-99.9,29.79,West,272,16.0,-999.0,-999,-99.99,,,-99.99,,2013-08-03 20:52:00,
2013-08-03 17:02:00,74.0,-99.9,29.79,West,272,16.0,-999.0,-999,-99.99,,,-99.99,,2013-08-03 21:02:00,
2013-08-03 17:22:00,75.0,-99.9,29.78,West,271,11.0,-999.0,-999,-99.99,,,-99.99,,2013-08-03 21:22:00,
2013-08-03 17:32:00,75.0,-99.9,29.78,West,271,11.0,-999.0,-999,-99.99,,,-99.99,,2013-08-03 21:32:00,
2013-08-03 17:52:00,75.0,-99.9,29.78,West,265,14.0,-999.0,-999,-99.99,,,-99.99,,2013-08-03 21:52:00,
2013-08-03 18:02:00,75.0,-99.9,29.78,West,265,14.0,-999.0,-999,-99.99,,,-99.99,,2013-08-03 22:02:00,
2013-08-03 18:22:00,75.0,-99.9,29.77,West,266,13.0,-999.0,-999,-99.99,,,-99.99,,2013-08-03 22:22:00,
2013-08-03 18:33:00,75.0,-99.9,29.77,West,266,13.0,-999.0,-999,-99.99,,,-99.99,,2013-08-03 22:33:00,
2013-08-03 18:52:00,75.0,-99.9,29.78,West,267,14.0,-999.0,-999,-99.99,,,-99.99,,2013-08-03 22:52:00,
2013-08-03 19:02:00,75.0,-99.9,29.78,West,267,14.0,-999.0,-999,-99.99,,,-99.99,,2013-08-03 23:02:00,
2013-08-03 19:22:00,74.0,-99.9,29.77,West,263,10.0,-999.0,-999,-99.99,,,-99.99,,2013-08-03 23:22:00,
2013-08-03 19:32:00,74.0,-99.9,29.77,West,263,10.0,-999.0,-999,-99.99,,,-99.99,,2013-08-03 23:32:00,
2013-08-03 19:52:00,74.0,-99.9,29.78,WNW,285,10.0,-999.0,-999,-99.99,,,-99.99,,2013-08-03 23:52:00,
2013-08-03 20:03:00,74.0,-99.9,29.78,WNW,285,10.0,-999.0,-999,-99.99,,,-99.99,,2013-08-04 00:03:00,
2013-08-03 20:22:00,73.0,-99.9,29.80,West,278,8.0,-999.0,-999,-99.99,,,-99.99,,2013-08-04 00:22:00,
2013-08-03 20:32:00,73.0,-99.9,29.80,West,278,8.0,-999.0,-999,-99.99,,,-99.99,,2013-08-04 00:32:00,
2013-08-03 20:53:00,72.0,-99.9,29.81,WNW,302,8.0,-999.0,-999,-99.99,,,-99.99,,2013-08-04 00:53:00,
2013-08-03 21:02:00,72.0,-99.9,29.81,WNW,302,8.0,-999.0,-999,-99.99,,,-99.99,,2013-08-04 01:02:00,
2013-08-03 21:22:00,72.0,-99.9,29.81,West,279,7.0,-999.0,-999,-99.99,,,-99.99,,2013-08-04 01:22:00,
2013-08-03 21:32:00,72.0,-99.9,29.81,West,279,7.0,-999.0,-999,-99.99,,,-99.99,,2013-08-04 01:32:00,
2013-08-03 21:53:00,72.0,-99.9,29.81,WSW,255,9.0,-999.0,-999,-99.99,,,-99.99,,2013-08-04 01:53:00,
2013-08-03 22:02:00,72.0,-99.9,29.81,WSW,255,9.0,-999.0,-999,-99.99,,,-99.99,,2013-08-04 02:02:00,
2013-08-03 22:22:00,71.0,-99.9,29.81,West,278,9.0,-999.0,-999,-99.99,,,-99.99,,2013-08-04 02:22:00,
2013-08-03 22:32:00,71.0,-99.9,29.81,West,278,9.0,-999.0,-999,-99.99,,,-99.99,,2013-08-04 02:32:00,
2013-08-03 22:52:00,72.0,-99.9,29.81,WNW,295,6.0,-999.0,-999,-99.99,,,-99.99,,2013-08-04 02:52:00,
2013-08-03 23:02:00,72.0,-99.9,29.81,WNW,295,6.0,-999.0,-999,-99.99,,,-99.99,,2013-08-04 03:02:00,
2013-08-03 23:22:00,71.0,-99.9,29.81,NW,311,9.0,-999.0,-999,-99.99,,,-99.99,,2013-08-04 03:22:00,
2013-08-03 23:32:00,71.0,-99.9,29.81,NW,311,9.0,-999.0,-999,-99.99,,,-99.99,,2013-08-04 03:32:00,
2013-08-03 23:42:00,71.0,-99.9,29.81,NW,311,9.0,-999.0,-999,-99.99,,,-99.99,,2013-08-04 03:42:00,
2013-08-03 23:52:00,72.0,-99.9,29.81,West,281,7.0,-999.0,-999,-99.99,,,-99.99,,2013-08-04 03:52:00,